Location: ????? ????
(37.9717°N, 23.4051°E)
Time: 20:05:48
(UTC+00:00)

Terra - Pass Details

Date: 18 April 2024
Orbit: 691 x 696 km, 98.0° (Epoch: 27 May)

Event Time Altitude Azimuth Distance (km) Brightness Sun altitude
Exits shadow 20:41:02 23° 297° (WNW) 1,473 3.9 -35.1°
Drops below altitude 10° 20:43:28 10° 323° (NW) 2,161 5.1 -35.3°
Sets 20:46:01 0° 335° (NNW) 3,082 6.1 -35.6°
